Погода в Климовском

Россия / Вологодская область     59°20′50″N   38°01′01″E
темп.,
°C
ветер,
м/с
пор.,
м/с
влажн.,
%
обл.,
%
осадки,
мм/ч
давл.,
гПа
погр.,
м
29 мая, вс
вс2900:00+7зюз339499 0.0 100058
03:00+7зюз369586 0.0 1000139
06:00+8зюз499254 0.0 1002307
09:00+12зюз577051 0.0 10031037
12:00+15зюз575466 0.1 10041953
15:00+14з58667 0.7 1005869
18:00+13з477550 1.4 10071115
21:00+9з359397 2.1 100990
30 мая, пн
пн3000:00+8зюз499462 0.0 1010262
03:00+7зюз4109582 0.0 1012256
06:00+8зюз4119244 0.0 1012396
09:00+12зюз6117877 0.0 1014749
12:00+11сз51182100 0.3 1016614
15:00+11зсз4118199 0.3 1017556
18:00+13з2477100 0.0 1018271
21:00+11ююз118033 0.0 101910
31 мая, вт
вт3100:00+8вюв118834 0.0 102010
03:00+7в229218 0.0 102020
06:00+10юв2485100 0.0 1020113
09:00+17юв465953 0.0 1020745
12:00+18ю575481 0.0 10201608
15:00+17ююв5963100 0.0 1020773
18:00+15юв41070100 0.0 1020624
21:00+14юв41178100 0.0 1020581
1 июня, ср
ср100:00+12юв41195100 1.0 1019569
03:00+12юв41098100 5.7 1019578
06:00+11ююв1299100 4.8 101977
09:00+12з2396100 5.3 1019203
12:00+18зсз236682 0.0 10191177
15:00+19сз23630 0.6 10201132
18:00+19ю02580 0.0 10201187
21:00+14ююз228199 0.0 102119
2 июня, чт
чт200:00+11юв22875 0.0 102111
03:00+10вюв22906 0.0 102111
06:00+13вюв3688100 0.0 1020186
09:00+17юв4671100 0.0 1019795
12:00+20ююв45553 0.1 10171672
15:00+21ю564950 0.1 10161530
18:00+20ююв366040 0.0 1015601
21:00+15юв34795 0.0 101471